Flag for Australia Weather past 2 weeks in Armidale, New South Wales, Australia

Now
40 °F

Quite cool.


Feels Like: 36 °F
Forecast: 33 / 58 °F
Wind: 6 mph from Northwest

Location: Armidale Airport Aws

Current Time: Jul 31, 2014 at 8:08:16 AM

Latest Report: Jul 31, 2014 at 6:00 AM


Visibility: N/A

Pressure: 30.16 "Hg

Humidity: 64%

Dew point: 29 °F

Location of ArmidaleLocation

Historic Weather in Armidale — Graph

°F

Armidale temperature yesterday

Maximum temperature yesterday: 59 °F (at 3:00 PM)
Minimum temperature yesterday: 37 °F (at 2:00 AM)
Average temperature yesterday: 46 °F

Past Weeks' High & Low Weather Summary

 TemperatureHumidityPressure
High64 °F (Jul 25, 3:00 PM)100% (Jul 21, 8:00 AM)30.34 "Hg (Jul 21, 8:00 AM)
Low30 °F (Jul 19, 6:00 AM)34% (Jul 30, 3:00 PM)29.84 "Hg (Jul 18, 6:00 AM)
Average44 °F81%30.17 "Hg
* Reported Jul 16 6:00 AM — Jul 31 6:00 AM, Armidale, Weather by CustomWeather, © 2014

Note: Actual official high and low records may vary slightly from our data, if they occured in-between our weather recording intervals... More about our weather records

Advertising

Armidale weather history for previous 24 hours

 ConditionsComfort  
Time TempWeatherWind HumidityBarometerVisibility
6:00 AM
Jul 31
40 °FQuite cool.6 mph64%30.16 "HgN/A
5:00 AM40 °FChilly.7 mph65%30.15 "HgN/A
3:00 AM40 °FQuite cool.7 mph64%30.16 "HgN/A
2:00 AM40 °FQuite cool.6 mph66%30.16 "HgN/A
12:00 AM41 °FQuite cool.8 mph68%30.19 "HgN/A
11:00 PM
Jul 30
39 °FChilly.5 mph71%30.20 "HgN/A
9:00 PM41 °FQuite cool.8 mph66%30.19 "HgN/A
8:00 PM43 °FQuite cool.8 mph64%30.19 "HgN/A
6:00 PM48 °FCool.6 mph51%30.18 "HgN/A
5:00 PM55 °FCool.7 mph41%30.17 "HgN/A
3:00 PM59 °FRefreshingly cool.14 mph34%30.17 "HgN/A
2:00 PM58 °FRefreshingly cool.12 mph37%30.17 "HgN/A
12:00 PM56 °FRefreshingly cool.14 mph40%30.22 "HgN/A
11:00 AM56 °FRefreshingly cool.15 mph38%30.24 "HgN/A
9:00 AM51 °FCool.12 mph49%30.26 "HgN/A
8:00 AM44 °FQuite cool.8 mph68%30.24 "HgN/A
Weather by CustomWeather, © 2014

See weather overviewHow to use our weather pages